INTELSAT 906 (IS-906)

Last updated on Jan. 16, 2021, 6:28 a.m. UTC

1 27513U 02041A   21015.90466118  .00000008  00000-0  00000-0 0  9997
2 27513   0.7934  96.7019 0003175 202.6365 206.0248  1.00271287 67198
UTC
Height (km)
Latitude
Longitude
Inclination
Orbital Period
UTC large
Height (km)
Speed (km/s)
/
Latitude / Longitude
Inclination (degrees)
Orbital Period (minutes)
Azimuth
Elevation
Range (km)
Doppler Factor
iOS Compass Heading
iOS Angle

Next 30 passes for location: Hong Kong

Rise time Rise Azimuth (degrees) Set time Set Azimuth (degrees) Duration Max altitude (degrees)

No matching passes for this satellites